Location: Newark
(50.0336°N, 22.0047°E)
Time: 11:15:22
(UTC+00:00)

Envisat - Pass Details

Date: 01 February 2020
Orbit: 764 x 766 km, 98.1° (Epoch: 25 February)

Event Time Altitude Azimuth Distance (km) Brightness Sun altitude
Rises 16:28:36 0° 174° (S) 3,221 6.3 -10.4°
Reaches altitude 10° 16:30:56 10° 178° (S) 2,299 5.6 -10.7°
Maximum altitude 16:35:57 62° 259° (WSW) 866 3.6 -11.5°
Drops below altitude 10° 16:41:00 10° 340° (NNW) 2,315 5.6 -12.3°
Sets 16:43:21 0° 344° (NNW) 3,246 6.3 -12.7°
